Cape Girardeau, MO

4:50 PM CST on December 05, 2019 (GMT -0600)
Cape Girardeau Regional

Weather History for KCGI - October, 2019

Change the Weather History Date:

Monday, October 7, 2019

  Actual Average Record
Temperature  
Mean Temperature 60 °F 60 °F  
Max Temperature 73 °F 73 °F 90 °F (2018)
Min Temperature 47 °F 48 °F 31 °F (2001)
Degree Days  
Heating Degree Days 5 6  
Month to date heating degree days 6 38  
Since 1 July heating degree days 6 87  
Cooling Degree Days 0 2  
Month to date cooling degree days 44 14  
Year to date cooling degree days 1768 1436  
Growing Degree Days 12 (Base 50)    
Moisture  
Dew Point 50 °F    
Average Humidity 64    
Maximum Humidity 93    
Minimum Humidity 35    
Precipitation  
Precipitation 0.08 in 0.11 in 1.71 in (2008)
Month to date precipitation 1.18 0.81  
Year to date precipitation 48.85 35.14  
Sea Level Pressure  
Sea Level Pressure 30.19 in    
Wind  
Wind Speed 5 mph (NNE)    
Max Wind Speed 15 mph    
Max Gust Speed 22 mph    
Visibility 10 miles    
Events Rain    
T = Trace of Precipitation, MM = Missing Value Source: NWS Daily Summary

Daily Weather History Graph

Daily Weather History Graph

Search for Another Location

Airport or City:

Astronomy

Oct. 07, 2019 Rise Set
Actual Time 6:58 AM CDT 6:32 PM CDT
Civil Twilight 6:32 AM CDT 6:58 PM CDT
Nautical Twilight 6:02 AM CDT 7:29 PM CDT
Astronomical Twilight 5:32 AM CDT 7:59 PM CDT
Moon 3:45 PM CDT (10/7) 1:01 AM CDT (10/7)
Length of Visible Light 12h 26m
Length of Day
11h 34m
Waxing Gibbous, 69% of the Moon is Illuminated
Oct 7
Waxing Gibbous
Oct 13
Full
Oct 21
Last Quarter
Oct 27
New
Nov 4
First Quarter

Hourly Weather History & Observations

Time (CDT) Temp. Dew Point Humidity Pressure Visibility Wind Dir Wind Speed Gust Speed Precip Events Conditions
12:53 AM 60.1 °F 55.9 °F 86% 30.15 in 10.0 mi NNE 8.1 mph - N/A   Overcast
1:53 AM 60.1 °F 55.9 °F 86% 30.19 in 10.0 mi NW 10.4 mph - N/A   Overcast
2:53 AM 57.9 °F 52.0 °F 81% 30.17 in 8.0 mi NNE 10.4 mph - 0.02 in Rain Light Rain
3:53 AM 57.0 °F 54.0 °F 89% 30.17 in 10.0 mi NNE 5.8 mph - 0.04 in Rain Light Rain
4:53 AM 57.9 °F 55.0 °F 90% 30.16 in 10.0 mi North 4.6 mph - 0.02 in   Partly Cloudy
5:53 AM 57.9 °F 55.0 °F 90% 30.18 in 10.0 mi North 5.8 mph - N/A   Clear
6:53 AM 55.9 °F 53.1 °F 90% 30.20 in 10.0 mi North 4.6 mph - N/A   Clear
7:53 AM 55.9 °F 51.1 °F 84% 30.21 in 10.0 mi North 5.8 mph - N/A   Clear
8:53 AM 59.0 °F 51.1 °F 75% 30.22 in 10.0 mi North 5.8 mph - N/A   Clear
9:53 AM 61.0 °F 48.9 °F 64% 30.24 in 10.0 mi NNE 9.2 mph - N/A   Clear
10:53 AM 64.9 °F 48.9 °F 56% 30.25 in 10.0 mi NE 8.1 mph - N/A   Clear
11:53 AM 66.9 °F 48.9 °F 52% 30.24 in 10.0 mi NNE 10.4 mph - N/A   Clear
12:53 PM 69.1 °F 50.0 °F 51% 30.23 in 10.0 mi East 10.4 mph - N/A   Clear
1:53 PM 70.0 °F 48.0 °F 46% 30.20 in 10.0 mi NNE 9.2 mph - N/A   Clear
2:53 PM 72.0 °F 46.9 °F 41% 30.18 in 10.0 mi ENE 10.4 mph - N/A   Clear
3:53 PM 73.0 °F 44.1 °F 35% 30.17 in 10.0 mi North 9.2 mph 19.6 mph N/A   Clear
4:53 PM 72.0 °F 43.0 °F 35% 30.17 in 10.0 mi NE 5.8 mph - N/A   Clear
5:53 PM 71.1 °F 46.0 °F 41% 30.17 in 10.0 mi North 3.5 mph - N/A   Clear
6:53 PM 61.0 °F 51.1 °F 70% 30.16 in 10.0 mi Calm Calm - N/A   Clear
7:53 PM 55.9 °F 50.0 °F 80% 30.17 in 10.0 mi Calm Calm - N/A   Clear
8:53 PM 53.1 °F 50.0 °F 89% 30.19 in 10.0 mi Calm Calm - N/A   Clear
9:53 PM 51.1 °F 48.0 °F 89% 30.20 in 10.0 mi Calm Calm - N/A   Clear
10:53 PM 50.0 °F 48.0 °F 93% 30.20 in 10.0 mi Calm Calm - N/A   Clear
11:53 PM 48.0 °F 46.0 °F 93% 30.19 in 10.0 mi Calm Calm - N/A   Clear